Weather Roundup
Issued by NWS Springfield, MO

Home | Current Version | Previous Version | Text Only | Print | Product List | Glossary On
Versions: 1 2 3 4 5 6 7 8 9 10 11 12 13 14 15 16 17 18 19 20 21 22 23 24 25 26 27 28 29 30 31 32 33 34 35 36 37 38 39 40 41 42 43 44 45 46 47 48 49 50
000
NZUS99 KSGF 310007
HRRSGF

HOURLY WEATHER
NATIONAL WEATHER SERVICE SPRINGFIELD MO
700 PM CDT THU OCT 30 2014

......SGF CWA......

CITY           SKY/WX    TMP DP  RH WIND       PRES   REMARKS
SPRINGFIELD    CLEAR     60  38  43 NW8       30.03R
6HR MIN TEMP:  60; 6HR MAX TEMP:  67;

JOPLIN         CLEAR     59  39  47 NW9       30.07R
6HR MIN TEMP:  59; 6HR MAX TEMP:  70; 6HR PCP:  0.13;

WEST PLAINS    CLEAR     54  42  64 E3        30.03R
6HR MIN TEMP:  54; 6HR MAX TEMP:  62; 6HR PCP: TRACE;

ROLLA          MOCLDY    50  46  86 S5        30.01R
6HR MIN TEMP:  47; 6HR MAX TEMP:  53; 6HR PCP:  0.18;

OSAGE BEACH    CLEAR     54  46  76 NE3       30.02R
BRANSON        CLEAR     59  41  51 W7        30.04R

......SURROUNDING SGF CWA......

CITY           SKY/WX    TMP DP  RH WIND       PRES   REMARKS
CHANUTE        CLEAR     63  37  38 NW10      30.09R
PARSONS        CLEAR     59  38  45 N5        30.10R
COFFEYVILLE    CLEAR     63  37  38 NW7       30.09R
EMPORIA        CLEAR     59  37  44 NW9       30.12R
GROVE OK       CLEAR     63  37  39 NW3       30.08S
ROGERS AR      CLEAR     61  39  44 NW9       30.07R
SILOAM SPRINGS CLEAR     61  37  41 NW10G16   30.08R
HARRISON AR    CLEAR     60  42  51 NW5       30.04R
NEAR YELLVILLE CLEAR     63  41  45 NW5       30.02R

......KANSAS AND MISSOURI......

CITY           SKY/WX    TMP DP  RH WIND       PRES   REMARKS
KANSAS CTY INT PTCLDY    58  42  55 NW8       30.09R
DOWNTOWN KC    PTCLDY    62  41  46 N8        30.08R
COLUMBIA       MOCLDY    55  47  74 CALM      30.02R
SEDALIA        CLEAR     57  41  55 N5        30.04R
ST JOSEPH      PTCLDY    59  41  51 NW14      30.11R
ST LOUIS       MOCLDY    56  44  64 W5        30.04R
SPIRIT OF STL  CLOUDY    52  46  80 CALM      30.02S
KIRKSVILLE     MOCLDY    52  44  74 NE6       30.04R
WICHITA        CLEAR     66  33  29 N13       30.15R
TOPEKA         CLEAR     59  40  49 NW8       30.12R
OLATHE         CLEAR     61  40  45 N10       30.08R

......TENNESSEE......

CITY           SKY/WX    TMP DP  RH WIND       PRES   REMARKS
MEMPHIS        MOCLDY    62  47  57 S5        30.03F
NASHVILLE      PTCLDY    56  39  53 NW3       30.05S

......ARKANSAS.......

CITY           SKY/WX    TMP DP  RH WIND       PRES   REMARKS
FAYETTEVILLE   CLEAR     55  44  66 CALM      30.06S
FT SMITH       CLEAR     67  43  41 NW7       30.05R
LITTLE ROCK    CLEAR     63  46  54 SW5       30.04R

......OKLAHOMA.......

CITY           SKY/WX    TMP DP  RH WIND       PRES   REMARKS
TULSA          CLEAR     64  38  38 N9        30.09R
PONCA CITY     CLEAR     66  36  32 NW10      30.13R
MCALESTER      CLEAR     64  43  46 NW3       30.08R
OKLAHOMA CITY  CLEAR     68  35  29 N7        30.14R

......IOWA............

CITY           SKY/WX    TMP DP  RH WIND       PRES   REMARKS
DES MOINES     PTCLDY    56  38  50 N12       30.09R
QUAD CITIES    CLOUDY    47  39  74 E5        30.07S

......ILLINOIS........

CITY           SKY/WX    TMP DP  RH WIND       PRES   REMARKS
QUINCY         MOCLDY    48  41  76 NE6       30.03S
CHICAGO        CLOUDY    48  36  63 W5        30.06S




USA.gov is the U.S. government's official web portal to all federal, state and local government web resources and services.